User: anonymous   Login
Location: Theydon Bois
(51.6750°N, 0.1050°E)
Time: 10:10:00
(UTC+01:00)
Language:

ATLAS 5 CENTAUR R/B - Orbit

View from above orbital plane
View from above orbital plane
View from above satellite
View from above satellite

Ground track
Ground track

The orbit data is extracted from the following two-line orbital elements,

1 31702U 07027B   18194.96442488 0.00000000  00000-0  00000-0 0    00
2 31702  63.3596 160.8079 0319000   8.0641 351.9359 14.18640184    02
Epoch (UTC): 13 July 2018 23:08:46
Eccentricity: 0.0319000
inclination: 63.3596°
perigee height: 600 km
apogee height: 1060 km
right ascension of ascending node: 160.8079°
argument of perigee: 8.0641°
revolutions per day: 14.18640184
mean anomaly at epoch: 351.9359°
orbit number at epoch: 0

The dashed part of the orbit path shows where the satellite is in the earth's shadow,  

DLR